Amasia

Armenia     40˚57′21″N   43˚47′10″E
temp.,
°C
wind,
m/s
gust,
m/s
humid.,
%
clouds,
%
prec.,
mm/h
press.,
hPa
HPBL,
m
3 december, thu
thu301:00−6˚nnw118913 0.0 102721
04:00−7˚n11887 0.0 102721
07:00−7˚n11860 0.0 102721
10:00−5˚nw01830 0.0 102831
13:00−1˚s12800 0.0 1026227
16:00−2˚s11780 0.0 102594
19:00−6˚nnw11810 0.0 102721
22:00−6˚nnw01820 0.0 102721
4 december, fri
fri401:00−7˚ne01840 0.0 102821
04:00−7˚ene01859 0.0 102821
07:00−8˚sw01880 0.0 102721
10:00−6˚ssw018713 0.0 102733
13:00−2˚ssw238310 0.0 1025295
16:00−3˚ssw118226 0.0 1023106
19:00−7˚nnw118673 0.0 102521
22:00−7˚n018869 0.0 102621
5 december, sat
sat501:00−8˚n11909 0.0 102621
04:00−9˚n11925 0.0 102621
07:00−9˚nne119425 0.0 102621
10:00−7˚n019346 0.0 102636
13:00−3˚s238690 0.0 1023385
16:00−4˚ssw118288 0.0 1021179
19:00−8˚n11885 0.0 102421
22:00−8˚n119013 0.0 102421
6 december, sun
sun601:00−9˚n119365 0.0 102521
04:00−9˚n119561 0.0 102521
07:00−10˚n119563 0.0 102522
10:00−8˚nne119058 0.0 102534
13:00−4˚se018461 0.0 1023254
16:00−4˚sse018274 0.0 1022136
19:00−7˚ene118756 0.0 102422
22:00−8˚nne129159 0.0 102528
7 december, mon
mon701:00−8˚ne1290100 0.1 102643
04:00−7˚ne1291100 0.1 102734
07:00−7˚e1292100 0.1 102735
10:00−7˚ese1291100 0.2 1028119
13:00−4˚s238499 0.1 1025513
16:00−4˚s238199 0.1 1025520
19:00−5˚sse1287100 0.1 102773
22:00−7˚e129199 0.1 102849